Weather History for Hurlburt Field, FL

Change the Weather History Date:

Thursday, November 1, 2012

  Actual Average Record
Temperature  
Mean Temperature 63 °F -  
Max Temperature 74 °F 73 °F 84 °F (1997)
Min Temperature 53 °F 54 °F 41 °F (2014)
Degree Days  
Heating Degree Days 2    
Growing Degree Days 13 (Base 50)    
Moisture  
Dew Point 51 °F    
Average Humidity 63    
Maximum Humidity 97    
Minimum Humidity 31    
Precipitation  
Precipitation 0.00 in - - ()
Sea Level Pressure  
Sea Level Pressure 30.01 in    
Wind  
Wind Speed 7 mph (NNW)    
Max Wind Speed 10 mph    
Max Gust Speed 20 mph    
Visibility 10 miles    
Events Rain    
Averages and records for this station are not official NWS values.
T = Trace of Precipitation, MM = Missing Value Source: NWS Daily Summary

Daily Weather History Graph

Daily Weather History Graph

Search for Another Location

Airport:

Trip Planner

Search our weather history database for the weather conditions in past years. The results will help you decide how hot, cold, wet, or windy it might be!

Date:

Astronomy

Nov. 01, 2012 Rise Set
Actual Time 7:01 AM CDT 5:58 PM CDT
Civil Twilight 6:36 AM CDT 6:23 PM CDT
Nautical Twilight 6:08 AM CDT 6:51 PM CDT
Astronomical Twilight 5:40 AM CDT 7:20 PM CDT
Moon 8:04 PM CDT (11/1) 9:25 AM CDT (11/1)
Length of Visible Light 11h 46m
Length of Day
10h 57m
Waning Gibbous, 93% of the Moon is Illuminated
Nov 1
Waning Gibbous
Nov 6
Last Quarter
Nov 13
New
Nov 20
First Quarter
Nov 28
Full

Hourly Weather History & Observations

Time (CDT) Temp. Dew Point Humidity Pressure Visibility Wind Dir Wind Speed Gust Speed Precip Events Conditions
12:55 AM 67.6 °F 63.1 °F 85% 29.96 in 10.0 mi West 10.4 mph - N/A   Clear
1:55 AM 67.6 °F 63.9 °F 88% 29.96 in 10.0 mi West 10.4 mph 19.6 mph N/A   Clear
2:55 AM 67.1 °F 62.2 °F 84% 29.96 in 10.0 mi WNW 6.9 mph - N/A   Partly Cloudy
3:55 AM 63.5 °F 61.2 °F 92% 29.97 in 10.0 mi North 8.1 mph - N/A   Scattered Clouds
4:55 AM 61.0 °F 60.1 °F 97% 29.97 in 10.0 mi North 4.6 mph - N/A   Overcast
5:55 AM 61.3 °F 59.0 °F 92% 29.99 in 10.0 mi North 5.8 mph - N/A   Overcast
6:55 AM 58.6 °F 54.1 °F 85% 30.01 in 10.0 mi NE 3.5 mph - N/A   Scattered Clouds
6:56 AM 59.0 °F 53.6 °F 82% 30.01 in 10.0 mi NE 4.6 mph - N/A   Light Drizzle
6:57 AM 59.0 °F 53.6 °F 82% 30.01 in 10.0 mi NE 4.6 mph - N/A   Partly Cloudy
7:55 AM 58.5 °F 48.7 °F 70% 30.03 in 10.0 mi NNE 6.9 mph - 0.00 in   Clear
8:55 AM 62.2 °F 45.7 °F 55% 30.05 in 10.0 mi NNE 10.4 mph - N/A   Clear
9:55 AM 66.0 °F 37.8 °F 35% 30.06 in 10.0 mi NE 10.4 mph - N/A   Clear
10:55 AM 69.8 °F 37.8 °F 31% 30.08 in 10.0 mi Variable 6.9 mph - N/A   Clear
11:55 AM 72.3 °F 41.0 °F 32% 30.06 in 10.0 mi NNE 5.8 mph - N/A   Clear
12:55 PM 73.9 °F 43.9 °F 34% 30.02 in 10.0 mi North 6.9 mph - N/A   Clear
1:16 PM 73.4 °F 44.6 °F 36% 30.01 in 10.0 mi Variable 3.5 mph - N/A   Light Drizzle
1:45 PM 73.4 °F 50.0 °F 44% 29.99 in 10.0 mi South 8.1 mph - N/A   Clear
1:55 PM 72.7 °F 48.9 °F 43% 29.99 in 10.0 mi SSW 10.4 mph - 0.00 in   Clear
2:55 PM 72.0 °F 47.7 °F 42% 29.98 in 10.0 mi WSW 10.4 mph - N/A   Clear
3:55 PM 72.7 °F 52.2 °F 48% 29.97 in 10.0 mi SW 9.2 mph - N/A   Clear
4:20 PM 73.4 °F 51.8 °F 47% 29.97 in 10.0 mi Calm Calm - N/A Rain Light Rain
4:23 PM 73.4 °F 48.2 °F 41% 29.97 in 10.0 mi NW 8.1 mph - N/A   Clear
4:55 PM 73.9 °F 45.9 °F 37% 29.97 in 10.0 mi NW 8.1 mph - 0.00 in   Clear
5:55 PM 68.9 °F 52.9 °F 57% 29.99 in 10.0 mi West 9.2 mph - N/A   Clear
6:55 PM 65.8 °F 50.9 °F 58% 30.01 in 10.0 mi WNW 6.9 mph - N/A   Clear
7:55 PM 64.0 °F 51.6 °F 64% 30.03 in 10.0 mi NW 5.8 mph - N/A   Clear
8:55 PM 57.9 °F 50.9 °F 77% 30.03 in 10.0 mi North 3.5 mph - N/A   Clear
9:55 PM 55.0 °F 50.5 °F 85% 30.04 in 10.0 mi North 3.5 mph - N/A   Clear
10:55 PM 53.8 °F 50.5 °F 89% 30.05 in 10.0 mi Calm Calm - N/A   Clear
11:55 PM 54.0 °F 49.5 °F 85% 30.04 in 10.0 mi Calm Calm - N/A   Clear